AV279 Weather Reports


time (UTC)temp
C
wind
direction
speed
KPH
gust
KPH
rain 1hr
cm
rain 24hr
cm
rain mn
cm
humidity
%
barometer
mb
20260506031320 10 23 11.3 24.1 0.00 0.00 0.00 79 1009.3
20260506030352 10 23 8.0 12.9 0.00 0.00 0.00 80 1009.3
20260506025330 10 23 6.4 9.7 0.00 0.00 0.00 80 1009.2
20260506024341 10 23 4.8 14.5 0.00 0.00 0.00 80 1009.1
20260506023330 10 45 6.4 16.1 0.00 0.00 0.00 79 1009.2
20260506022319 10 23 12.9 19.3 0.00 0.00 0.00 79 1009.3
20260506021319 10 45 8.0 14.5 0.00 0.00 0.00 80 1009.3
20260506020330 10 338 9.7 14.5 0.00 0.00 0.00 80 1009.3
20260506015330 10 0 12.9 22.5 0.00 0.00 0.00 80 1009.3
20260506014320 10 338 8.0 16.1 0.00 0.00 0.00 81 1009.4
20260506013319 10 23 9.7 16.1 0.00 0.00 0.00 81 1009.5
20260506012320 10 23 9.7 14.5 0.00 0.00 0.00 81 1009.4
20260506011350 10 23 9.7 12.9 0.00 0.00 0.00 81 1009.4
20260506010319 10 0 8.0 14.5 0.00 0.00 0.00 80 1009.5
20260506005339 10 23 6.4 12.9 0.00 0.00 0.00 80 1009.6
20260506004319 10 23 12.9 20.9 0.00 0.00 0.00 81 1009.7
20260506003330 10 23 4.8 8.0 0.00 0.00 0.00 81 1009.8
20260506002319 10 68 4.8 12.9 0.00 0.00 0.00 80 1009.8
20260506001319 10 23 8.0 16.1 0.00 0.00 0.00 80 1009.8
20260506000330 10 338 6.4 12.9 0.00 0.00 0.00 79 1009.8
20260505235320 10 23 11.3 19.3 0.00 0.00 0.00 79 1009.8
20260505234320 10 0 11.3 17.7 0.00 0.00 0.00 78 1009.7
20260505233322 11 0 6.4 12.9 0.00 0.00 0.00 77 1009.8
20260505232350 11 0 6.4 16.1 0.00 0.00 0.00 78 1009.9
20260505231330 11 23 11.3 19.3 0.00 0.00 0.00 78 1009.8
20260505230330 11 23 11.3 17.7 0.00 0.00 0.00 78 1009.9
20260505225320 11 0 8.0 16.1 0.00 0.00 0.00 78 1009.9
20260505224352 11 45 6.4 14.5 0.00 0.00 0.00 78 1009.9
20260505223319 11 0 8.0 17.7 0.00 0.00 0.00 78 1010.0
20260505222320 11 45 8.0 14.5 0.00 0.00 0.00 78 1009.9
20260505221350 11 23 6.4 17.7 0.00 0.00 0.00 78 1010.0
20260505220323 11 23 14.5 20.9 0.00 0.00 0.00 78 1010.1
20260505215533 11 23 6.4 12.9 0.00 0.00 0.00 78 1010.1
20260505214330 11 0 11.3 19.3 0.00 0.00 0.00 78 1010.2
20260505213319 11 23 6.4 9.7 0.00 0.00 0.00 77 1010.2
20260505212319 11 23 6.4 8.0 0.00 0.00 0.00 77 1010.2
20260505211401 11 45 8.0 16.1 0.00 0.00 0.00 77 1010.2
20260505210319 11 68 6.4 12.9 0.00 0.00 0.00 78 1010.1
20260505205330 11 23 12.9 19.3 0.00 0.00 0.00 78 1010.0
20260505204330 11 338 8.0 20.9 0.00 0.00 0.00 78 1010.1
20260505203330 11 0 12.9 22.5 0.00 0.00 0.00 78 1010.1
20260505202319 11 68 4.8 8.0 0.00 0.00 0.00 79 1010.1
20260505201330 11 45 6.4 14.5 0.00 0.00 0.00 78 1010.1
20260505200319 11 23 11.3 16.1 0.00 0.00 0.00 79 1010.0
20260505195320 11 23 16.1 22.5 0.00 0.00 0.00 78 1009.8
20260505194319 11 23 9.7 17.7 0.00 0.00 0.00 78 1009.7
20260505193319 11 315 4.8 9.7 0.00 0.00 0.00 77 1009.7
20260505192319 11 45 9.7 17.7 0.00 0.00 0.00 77 1009.6
20260505191330 11 0 9.7 17.7 0.00 0.00 0.00 76 1009.6
20260505190524 11 23 8.0 14.5 0.00 0.00 0.00 76 1009.5
20260505190019 11 23 14.5 25.7 0.00 0.00 0.00 76 1009.6
20260505185030 11 23 16.1 22.5 0.00 0.00 0.00 76 1009.5
20260505184019 12 0 9.7 17.7 0.00 0.00 0.00 76 1009.4
20260505183030 12 0 8.0 14.5 0.00 0.00 0.00 76 1009.5
20260505182019 12 0 9.7 17.7 0.00 0.00 0.00 75 1009.6
20260505181019 12 45 14.5 27.4 0.00 0.00 0.00 76 1009.5
20260505180019 12 45 16.1 24.1 0.00 0.00 0.00 76 1009.5
20260505175051 12 23 4.8 16.1 0.00 0.00 0.00 76 1009.5
20260505174019 12 23 9.7 19.3 0.00 0.00 0.00 76 1009.6
20260505173019 12 0 11.3 17.7 0.00 0.00 0.00 76 1009.4
20260505172019 12 23 19.3 30.6 0.00 0.00 0.00 77 1009.3
20260505171051 12 23 6.4 9.7 0.00 0.00 0.00 77 1009.2
20260505170030 12 23 12.9 19.3 0.00 0.00 0.00 77 1009.3
20260505165029 12 23 11.3 20.9 0.00 0.00 0.00 77 1009.3
20260505164019 12 45 9.7 17.7 0.00 0.00 0.00 77 1009.4
20260505163019 12 23 12.9 22.5 0.00 0.00 0.00 77 1009.3
20260505162019 12 45 19.3 27.4 0.00 0.00 0.00 75 1009.2
20260505161030 13 23 9.7 24.1 0.00 0.00 0.00 74 1009.3
20260505153049 13 45 12.9 19.3 0.00 0.00 0.00 74 1009.5
20260505152029 13 315 3.2 4.8 0.00 0.00 0.00 74 1009.4
20260505151019 13 23 9.7 17.7 0.00 0.00 0.00 73 1009.5
20260505130219 15 0 11.3 17.7 0.00 0.00 0.00 69 1010.2
20260505124230 15 23 11.3 24.1 0.00 0.00 0.00 70 1009.9
20260505123218 15 23 17.7 30.6 0.00 0.00 0.00 70 1010.1
20260505122219 14 23 9.7 27.4 0.00 0.00 0.00 72 1010.1
20260505121218 13 23 9.7 14.5 0.00 0.00 0.00 72 1010.2
20260505120251 13 338 14.5 27.4 0.00 0.00 0.00 72 1010.1
20260505115219 14 45 9.7 16.1 0.00 0.00 0.00 71 1010.3
20260505114218 14 23 11.3 19.3 0.00 0.00 0.00 71 1010.2
20260505113219 15 0 17.7 25.7 0.00 0.00 0.00 70 1010.2
20260505112238 14 45 9.7 24.1 0.00 0.00 0.00 69 1010.2
20260505111219 15 68 8.0 14.5 0.00 0.00 0.00 67 1010.2
20260505110229 15 23 17.7 25.7 0.00 0.00 0.00 69 1010.4
20260505101249 15 23 17.7 29.0 0.00 0.00 0.00 70 1010.5
20260505100258 15 23 11.3 25.7 0.00 0.00 0.00 69 1010.5
20260505095231 13 0 14.5 20.9 0.00 0.00 0.00 71 1010.7
20260505094249 13 45 4.8 8.0 0.00 0.00 0.00 73 1010.6
20260505093218 13 45 12.9 20.9 0.00 0.00 0.00 73 1010.7
20260505092331 13 45 12.9 24.1 0.00 0.00 0.00 71 1010.7
20260505091238 13 23 9.7 17.7 0.00 0.00 0.00 72 1010.7
20260505090218 13 45 11.3 24.1 0.00 0.00 0.00 72 1010.8
20260505085437 13 45 9.7 22.5 0.00 0.00 0.00 73 1010.8
20260505084619 13 0 11.3 19.3 0.00 0.00 0.00 74 1010.8
20260505083618 12 45 8.0 16.1 0.00 0.00 0.00 75 1010.8
20260505082631 12 45 12.9 19.3 0.00 0.00 0.00 77 1010.9
20260505081828 12 23 4.8 8.0 0.00 0.00 0.00 76 1010.9
20260505080638 12 0 12.9 20.9 0.00 0.00 0.00 76 1011.0
20260505075620 12 0 9.7 16.1 0.00 0.00 0.00 78 1011.2
20260505074618 12 23 9.7 14.5 0.00 0.00 0.00 78 1011.2
20260505073620 12 45 3.2 6.4 0.00 0.00 0.00 79 1011.3
20260505072620 12 0 11.3 16.1 0.00 0.00 0.00 79 1011.2
20260505071631 12 23 9.7 17.7 0.00 0.00 0.00 79 1011.2
20260505070620 12 23 9.7 20.9 0.00 0.00 0.00 79 1011.1
20260505065650 12 23 17.7 22.5 0.00 0.00 0.00 79 1011.1
20260505064630 12 338 6.4 11.3 0.00 0.00 0.00 79 1011.3
20260505063652 11 23 6.4 14.5 0.00 0.00 0.00 80 1011.3
20260505062700 11 23 9.7 19.3 0.00 0.00 0.00 80 1011.2
20260505061638 11 23 9.7 19.3 0.00 0.00 0.00 81 1011.1
20260505060631 11 45 6.4 11.3 0.00 0.00 0.00 82 1011.1
20260505055631 11 0 11.3 19.3 0.00 0.00 0.00 83 1011.1
20260505054631 11 0 9.7 16.1 0.00 0.00 0.00 85 1011.1
20260505053620 11 45 1.6 4.8 0.00 0.00 0.00 85 1011.1
20260505052630 11 45 6.4 11.3 0.00 0.00 0.00 85 1011.1
20260505051631 11 0 6.4 9.7 0.00 0.00 0.00 85 1011.3
20260505050652 11 45 4.8 11.3 0.00 0.00 0.00 85 1011.5
20260505041631 11 0 11.3 16.1 0.00 0.00 0.00 86 1011.5
20260505040650 11 23 8.0 14.5 0.00 0.00 0.00 86 1011.5
20260505035620 11 23 3.2 6.4 0.00 0.00 0.00 86 1011.7
20260505034620 11 23 4.8 11.3 0.00 0.00 0.00 86 1011.7
20260505033620 11 45 3.2 4.8 0.00 0.00 0.00 86 1011.9
20260505032630 11 23 3.2 4.8 0.00 0.00 0.00 86 1011.8